owner,sensor,date,latitude,longitude,vertical_datum,wind_speed,wind_to_direction,wind_speed_of_gust,qcFlag 
DISL,ioos:station:DISL:MHPA:1,2011-08-01T00:00:00Z,30.6671,-87.9365,8.5,1.94,12.28,-9999.0,'1111122,1111122,1111122' 
DISL,ioos:station:DISL:MHPA:1,2011-08-01T00:30:00Z,30.6671,-87.9365,8.5,1.4,6.387,-9999.0,'1111122,1111122,1111122' 
DISL,ioos:station:DISL:MHPA:1,2011-08-01T01:00:00Z,30.6671,-87.9365,8.5,1.23,1.806,-9999.0,'1111122,1111122,1111122' 
DISL,ioos:station:DISL:MHPA:1,2011-08-01T01:30:00Z,30.6671,-87.9365,8.5,2.28,45.17,-9999.0,'1111122,1111122,1111122' 
DISL,ioos:station:DISL:MHPA:1,2011-08-01T02:00:00Z,30.6671,-87.9365,8.5,1.26,86.6,-9999.0,'1111122,1111122,1111122' 
DISL,ioos:station:DISL:MHPA:1,2011-08-01T02:30:00Z,30.6671,-87.9365,8.5,0.54,46.05,-9999.0,'1111122,1111122,1111122' 
DISL,ioos:station:DISL:MHPA:1,2011-08-01T03:00:00Z,30.6671,-87.9365,8.5,0.6,235.2,-9999.0,'1111122,1111122,1111122' 
DISL,ioos:station:DISL:MHPA:1,2011-08-01T03:30:00Z,30.6671,-87.9365,8.5,0.81,315.5,-9999.0,'1111122,1111122,1111122' 
DISL,ioos:station:DISL:MHPA:1,2011-08-01T04:00:00Z,30.6671,-87.9365,8.5,1.14,305.7,-9999.0,'1111122,1111122,1111122' 
DISL,ioos:station:DISL:MHPA:1,2011-08-01T04:30:00Z,30.6671,-87.9365,8.5,0.54,357.5,-9999.0,'1111122,1111122,1111122' 
DISL,ioos:station:DISL:MHPA:1,2011-08-01T05:00:00Z,30.6671,-87.9365,8.5,1.63,352.2,-9999.0,'1111122,1111122,1111122' 
DISL,ioos:station:DISL:MHPA:1,2011-08-01T05:30:00Z,30.6671,-87.9365,8.5,0.38,15.6,-9999.0,'1111122,1111122,1111122' 
DISL,ioos:station:DISL:MHPA:1,2011-08-01T06:00:00Z,30.6671,-87.9365,8.5,0.58,44.83,-9999.0,'1111122,1111122,1111122' 
DISL,ioos:station:DISL:MHPA:1,2011-08-01T06:30:00Z,30.6671,-87.9365,8.5,0.61,42.92,-9999.0,'1111122,1111122,1111122' 
DISL,ioos:station:DISL:MHPA:1,2011-08-01T07:00:00Z,30.6671,-87.9365,8.5,0.95,42.61,-9999.0,'1111122,1111122,1111122' 
DISL,ioos:station:DISL:MHPA:1,2011-08-01T07:30:00Z,30.6671,-87.9365,8.5,0.93,19.07,-9999.0,'1111122,1111122,1111122' 
DISL,ioos:station:DISL:MHPA:1,2011-08-01T08:00:00Z,30.6671,-87.9365,8.5,0.43,331.9,-9999.0,'1111122,1111122,1111122' 
DISL,ioos:station:DISL:MHPA:1,2011-08-01T08:30:00Z,30.6671,-87.9365,8.5,0.89,336.4,-9999.0,'1111122,1111122,1111122' 
DISL,ioos:station:DISL:MHPA:1,2011-08-01T09:00:00Z,30.6671,-87.9365,8.5,0.44,63.47,-9999.0,'1111122,1111122,1111122' 
DISL,ioos:station:DISL:MHPA:1,2011-08-01T09:30:00Z,30.6671,-87.9365,8.5,0.73,9.93,-9999.0,'1111122,1111122,1111122' 
DISL,ioos:station:DISL:MHPA:1,2011-08-01T10:00:00Z,30.6671,-87.9365,8.5,0.76,355.8,-9999.0,'1111122,1111122,1111122' 
DISL,ioos:station:DISL:MHPA:1,2011-08-01T10:30:00Z,30.6671,-87.9365,8.5,0.49,341.3,-9999.0,'1111122,1111122,1111122' 
DISL,ioos:station:DISL:MHPA:1,2011-08-01T11:00:00Z,30.6671,-87.9365,8.5,0.61,9.0,-9999.0,'1111122,1111122,1111122' 
DISL,ioos:station:DISL:MHPA:1,2011-08-01T11:30:00Z,30.6671,-87.9365,8.5,1.35,343.8,-9999.0,'1111122,1111122,1111122' 
DISL,ioos:station:DISL:MHPA:1,2011-08-01T12:00:00Z,30.6671,-87.9365,8.5,1.53,342.4,-9999.0,'1111122,1111122,1111122' 
DISL,ioos:station:DISL:MHPA:1,2011-08-01T12:30:00Z,30.6671,-87.9365,8.5,1.72,315.7,-9999.0,'1111122,1111122,1111122' 
DISL,ioos:station:DISL:MHPA:1,2011-08-01T13:00:00Z,30.6671,-87.9365,8.5,2.16,319.8,-9999.0,'1111122,1111122,1111122' 
DISL,ioos:station:DISL:MHPA:1,2011-08-01T13:30:00Z,30.6671,-87.9365,8.5,2.06,320.2,-9999.0,'1111122,1111122,1111122' 
DISL,ioos:station:DISL:MHPA:1,2011-08-01T14:00:00Z,30.6671,-87.9365,8.5,1.57,285.3,-9999.0,'1111122,1111122,1111122' 
DISL,ioos:station:DISL:MHPA:1,2011-08-01T14:30:00Z,30.6671,-87.9365,8.5,2.55,286.8,-9999.0,'1111122,1111122,1111122' 
DISL,ioos:station:DISL:MHPA:1,2011-08-01T15:00:00Z,30.6671,-87.9365,8.5,1.31,270.9,-9999.0,'1111122,1111122,1111122' 
DISL,ioos:station:DISL:MHPA:1,2011-08-01T15:30:00Z,30.6671,-87.9365,8.5,1.48,208.6,-9999.0,'1111122,1111122,1111122' 
DISL,ioos:station:DISL:MHPA:1,2011-08-01T16:00:00Z,30.6671,-87.9365,8.5,1.76,224.5,-9999.0,'1111122,1111122,1111122' 
DISL,ioos:station:DISL:MHPA:1,2011-08-01T16:30:00Z,30.6671,-87.9365,8.5,2.07,203.8,-9999.0,'1111122,1111122,1111122' 
DISL,ioos:station:DISL:MHPA:1,2011-08-01T17:00:00Z,30.6671,-87.9365,8.5,2.32,186.8,-9999.0,'1111122,1111122,1111122' 
DISL,ioos:station:DISL:MHPA:1,2011-08-01T17:30:00Z,30.6671,-87.9365,8.5,2.39,196.2,-9999.0,'1111122,1111122,1111122' 
DISL,ioos:station:DISL:MHPA:1,2011-08-01T18:00:00Z,30.6671,-87.9365,8.5,2.04,228.7,-9999.0,'1111122,1111122,1111122' 
DISL,ioos:station:DISL:MHPA:1,2011-08-01T18:30:00Z,30.6671,-87.9365,8.5,2.13,231.5,-9999.0,'1111122,1111122,1111122' 
DISL,ioos:station:DISL:MHPA:1,2011-08-01T19:00:00Z,30.6671,-87.9365,8.5,2.42,261.7,-9999.0,'1111122,1111122,1111122' 
DISL,ioos:station:DISL:MHPA:1,2011-08-01T19:30:00Z,30.6671,-87.9365,8.5,6.87,241.0,-9999.0,'1111122,1111122,1111122' 
DISL,ioos:station:DISL:MHPA:1,2011-08-01T20:00:00Z,30.6671,-87.9365,8.5,6.43,223.7,-9999.0,'1111122,1111122,1111122' 
DISL,ioos:station:DISL:MHPA:1,2011-08-01T20:30:00Z,30.6671,-87.9365,8.5,5.64,242.0,-9999.0,'1111122,1111122,1111122' 
DISL,ioos:station:DISL:MHPA:1,2011-08-01T21:00:00Z,30.6671,-87.9365,8.5,6.28,243.4,-9999.0,'1111122,1111122,1111122' 
DISL,ioos:station:DISL:MHPA:1,2011-08-01T21:30:00Z,30.6671,-87.9365,8.5,6.12,230.9,-9999.0,'1111122,1111122,1111122' 
DISL,ioos:station:DISL:MHPA:1,2011-08-01T22:00:00Z,30.6671,-87.9365,8.5,4.52,214.3,-9999.0,'1111122,1111122,1111122' 
DISL,ioos:station:DISL:MHPA:1,2011-08-01T22:30:00Z,30.6671,-87.9365,8.5,3.1,110.1,-9999.0,'1111122,1111122,1111122' 
DISL,ioos:station:DISL:MHPA:1,2011-08-01T23:00:00Z,30.6671,-87.9365,8.5,2.52,160.2,-9999.0,'1111122,1111122,1111122' 
DISL,ioos:station:DISL:MHPA:1,2011-08-01T23:30:00Z,30.6671,-87.9365,8.5,4.75,202.8,-9999.0,'1111122,1111122,1111122' 
DISL,ioos:station:DISL:MHPA:1,2011-08-02T00:00:00Z,30.6671,-87.9365,8.5,4.04,221.8,-9999.0,'1111122,1111122,1111122' 
DISL,ioos:station:DISL:MHPA:1,2011-08-02T00:30:00Z,30.6671,-87.9365,8.5,4.16,259.9,-9999.0,'1111122,1111122,1111122' 
DISL,ioos:station:DISL:MHPA:1,2011-08-02T01:00:00Z,30.6671,-87.9365,8.5,4.61,273.1,-9999.0,'1111122,1111122,1111122' 
DISL,ioos:station:DISL:MHPA:1,2011-08-02T01:30:00Z,30.6671,-87.9365,8.5,2.63,301.5,-9999.0,'1111122,1111122,1111122' 
DISL,ioos:station:DISL:MHPA:1,2011-08-02T02:00:00Z,30.6671,-87.9365,8.5,1.67,5.966,-9999.0,'1111122,1111122,1111122' 
DISL,ioos:station:DISL:MHPA:1,2011-08-02T02:30:00Z,30.6671,-87.9365,8.5,0.9,343.4,-9999.0,'1111122,1111122,1111122' 
DISL,ioos:station:DISL:MHPA:1,2011-08-02T03:00:00Z,30.6671,-87.9365,8.5,1.1,76.2,-9999.0,'1111122,1111122,1111122' 
DISL,ioos:station:DISL:MHPA:1,2011-08-02T03:30:00Z,30.6671,-87.9365,8.5,0.45,77.4,-9999.0,'1111122,1111122,1111122' 
DISL,ioos:station:DISL:MHPA:1,2011-08-02T04:00:00Z,30.6671,-87.9365,8.5,1.08,94.6,-9999.0,'1111122,1111122,1111122' 
DISL,ioos:station:DISL:MHPA:1,2011-08-02T04:30:00Z,30.6671,-87.9365,8.5,1.72,116.3,-9999.0,'1111122,1111122,1111122' 
DISL,ioos:station:DISL:MHPA:1,2011-08-02T05:00:00Z,30.6671,-87.9365,8.5,0.84,35.87,-9999.0,'1111122,1111122,1111122' 
DISL,ioos:station:DISL:MHPA:1,2011-08-02T05:30:00Z,30.6671,-87.9365,8.5,0.64,48.11,-9999.0,'1111122,1111122,1111122' 
DISL,ioos:station:DISL:MHPA:1,2011-08-02T06:00:00Z,30.6671,-87.9365,8.5,1.38,99.2,-9999.0,'1111122,1111122,1111122' 
DISL,ioos:station:DISL:MHPA:1,2011-08-02T06:30:00Z,30.6671,-87.9365,8.5,1.17,127.2,-9999.0,'1111122,1111122,1111122' 
DISL,ioos:station:DISL:MHPA:1,2011-08-02T07:00:00Z,30.6671,-87.9365,8.5,0.63,94.3,-9999.0,'1111122,1111122,1111122' 
DISL,ioos:station:DISL:MHPA:1,2011-08-02T07:30:00Z,30.6671,-87.9365,8.5,0.68,23.61,-9999.0,'1111122,1111122,1111122' 
DISL,ioos:station:DISL:MHPA:1,2011-08-02T08:00:00Z,30.6671,-87.9365,8.5,0.53,9.59,-9999.0,'1111122,1111122,1111122' 
DISL,ioos:station:DISL:MHPA:1,2011-08-02T08:30:00Z,30.6671,-87.9365,8.5,1.55,1.349,-9999.0,'1111122,1111122,1111122' 
DISL,ioos:station:DISL:MHPA:1,2011-08-02T09:00:00Z,30.6671,-87.9365,8.5,0.54,33.25,-9999.0,'1111122,1111122,1111122' 
DISL,ioos:station:DISL:MHPA:1,2011-08-02T09:30:00Z,30.6671,-87.9365,8.5,0.9,336.4,-9999.0,'1111122,1111122,1111122' 
DISL,ioos:station:DISL:MHPA:1,2011-08-02T10:00:00Z,30.6671,-87.9365,8.5,1.41,318.7,-9999.0,'1111122,1111122,1111122' 
DISL,ioos:station:DISL:MHPA:1,2011-08-02T10:30:00Z,30.6671,-87.9365,8.5,0.87,355.0,-9999.0,'1111122,1111122,1111122' 
DISL,ioos:station:DISL:MHPA:1,2011-08-02T11:00:00Z,30.6671,-87.9365,8.5,0.57,13.87,-9999.0,'1111122,1111122,1111122' 
DISL,ioos:station:DISL:MHPA:1,2011-08-02T11:30:00Z,30.6671,-87.9365,8.5,0.84,35.1,-9999.0,'1111122,1111122,1111122' 
DISL,ioos:station:DISL:MHPA:1,2011-08-02T12:00:00Z,30.6671,-87.9365,8.5,1.54,6.589,-9999.0,'1111122,1111122,1111122' 
DISL,ioos:station:DISL:MHPA:1,2011-08-02T12:30:00Z,30.6671,-87.9365,8.5,1.82,345.8,-9999.0,'1111122,1111122,1111122' 
DISL,ioos:station:DISL:MHPA:1,2011-08-02T13:00:00Z,30.6671,-87.9365,8.5,2.52,338.7,-9999.0,'1111122,1111122,1111122' 
DISL,ioos:station:DISL:MHPA:1,2011-08-02T13:30:00Z,30.6671,-87.9365,8.5,2.46,351.9,-9999.0,'1111122,1111122,1111122' 
DISL,ioos:station:DISL:MHPA:1,2011-08-02T14:00:00Z,30.6671,-87.9365,8.5,2.0,346.3,-9999.0,'1111122,1111122,1111122' 
DISL,ioos:station:DISL:MHPA:1,2011-08-02T14:30:00Z,30.6671,-87.9365,8.5,1.3,329.5,-9999.0,'1111122,1111122,1111122' 
DISL,ioos:station:DISL:MHPA:1,2011-08-02T15:00:00Z,30.6671,-87.9365,8.5,0.94,300.8,-9999.0,'1111122,1111122,1111122' 
DISL,ioos:station:DISL:MHPA:1,2011-08-02T15:30:00Z,30.6671,-87.9365,8.5,0.75,266.9,-9999.0,'1111122,1111122,1111122' 
DISL,ioos:station:DISL:MHPA:1,2011-08-02T16:00:00Z,30.6671,-87.9365,8.5,1.65,284.9,-9999.0,'1111122,1111122,1111122' 
DISL,ioos:station:DISL:MHPA:1,2011-08-02T16:30:00Z,30.6671,-87.9365,8.5,2.86,255.5,-9999.0,'1111122,1111122,1111122' 
DISL,ioos:station:DISL:MHPA:1,2011-08-02T17:00:00Z,30.6671,-87.9365,8.5,2.33,242.3,-9999.0,'1111122,1111122,1111122' 
DISL,ioos:station:DISL:MHPA:1,2011-08-02T17:30:00Z,30.6671,-87.9365,8.5,3.16,240.3,-9999.0,'1111122,1111122,1111122' 
DISL,ioos:station:DISL:MHPA:1,2011-08-02T18:00:00Z,30.6671,-87.9365,8.5,2.46,232.8,-9999.0,'1111122,1111122,1111122' 
DISL,ioos:station:DISL:MHPA:1,2011-08-02T18:30:00Z,30.6671,-87.9365,8.5,2.84,224.0,-9999.0,'1111122,1111122,1111122' 
DISL,ioos:station:DISL:MHPA:1,2011-08-02T19:00:00Z,30.6671,-87.9365,8.5,2.33,228.2,-9999.0,'1111122,1111122,1111122' 
DISL,ioos:station:DISL:MHPA:1,2011-08-02T19:30:00Z,30.6671,-87.9365,8.5,2.61,193.5,-9999.0,'1111122,1111122,1111122' 
DISL,ioos:station:DISL:MHPA:1,2011-08-02T20:00:00Z,30.6671,-87.9365,8.5,3.57,227.6,-9999.0,'1111122,1111122,1111122' 
DISL,ioos:station:DISL:MHPA:1,2011-08-02T20:30:00Z,30.6671,-87.9365,8.5,1.51,196.3,-9999.0,'1111122,1111122,1111122' 
DISL,ioos:station:DISL:MHPA:1,2011-08-02T21:00:00Z,30.6671,-87.9365,8.5,0.78,179.0,-9999.0,'1111122,1111122,1111122' 
DISL,ioos:station:DISL:MHPA:1,2011-08-02T21:30:00Z,30.6671,-87.9365,8.5,2.85,174.8,-9999.0,'1111122,1111122,1111122' 
DISL,ioos:station:DISL:MHPA:1,2011-08-02T22:00:00Z,30.6671,-87.9365,8.5,7.58,179.9,-9999.0,'1111122,1111122,1111122' 
DISL,ioos:station:DISL:MHPA:1,2011-08-02T22:30:00Z,30.6671,-87.9365,8.5,6.96,192.2,-9999.0,'1111122,1111122,1111122' 
DISL,ioos:station:DISL:MHPA:1,2011-08-02T23:00:00Z,30.6671,-87.9365,8.5,5.22,210.8,-9999.0,'1111122,1111122,1111122' 
DISL,ioos:station:DISL:MHPA:1,2011-08-02T23:30:00Z,30.6671,-87.9365,8.5,4.78,207.5,-9999.0,'1111122,1111122,1111122' 
DISL,ioos:station:DISL:MHPA:1,2011-08-03T00:00:00Z,30.6671,-87.9365,8.5,4.26,209.1,-9999.0,'1111122,1111122,1111122' 
DISL,ioos:station:DISL:MHPA:1,2011-08-03T00:30:00Z,30.6671,-87.9365,8.5,3.99,217.4,-9999.0,'1111122,1111122,1111122' 
DISL,ioos:station:DISL:MHPA:1,2011-08-03T01:00:00Z,30.6671,-87.9365,8.5,4.31,213.0,-9999.0,'1111122,1111122,1111122' 
DISL,ioos:station:DISL:MHPA:1,2011-08-03T01:30:00Z,30.6671,-87.9365,8.5,2.78,229.0,-9999.0,'1111122,1111122,1111122' 
DISL,ioos:station:DISL:MHPA:1,2011-08-03T02:00:00Z,30.6671,-87.9365,8.5,2.88,247.4,-9999.0,'1111122,1111122,1111122' 
DISL,ioos:station:DISL:MHPA:1,2011-08-03T02:30:00Z,30.6671,-87.9365,8.5,2.82,215.4,-9999.0,'1111122,1111122,1111122' 
DISL,ioos:station:DISL:MHPA:1,2011-08-03T03:00:00Z,30.6671,-87.9365,8.5,2.51,225.2,-9999.0,'1111122,1111122,1111122' 
DISL,ioos:station:DISL:MHPA:1,2011-08-03T03:30:00Z,30.6671,-87.9365,8.5,1.63,222.4,-9999.0,'1111122,1111122,1111122' 
DISL,ioos:station:DISL:MHPA:1,2011-08-03T04:00:00Z,30.6671,-87.9365,8.5,1.87,223.4,-9999.0,'1111122,1111122,1111122' 
DISL,ioos:station:DISL:MHPA:1,2011-08-03T04:30:00Z,30.6671,-87.9365,8.5,1.69,247.1,-9999.0,'1111122,1111122,1111122' 
DISL,ioos:station:DISL:MHPA:1,2011-08-03T05:00:00Z,30.6671,-87.9365,8.5,1.04,308.1,-9999.0,'1111122,1111122,1111122' 
DISL,ioos:station:DISL:MHPA:1,2011-08-03T05:30:00Z,30.6671,-87.9365,8.5,1.07,265.2,-9999.0,'1111122,1111122,1111122' 
DISL,ioos:station:DISL:MHPA:1,2011-08-03T06:00:00Z,30.6671,-87.9365,8.5,0.83,265.0,-9999.0,'1111122,1111122,1111122' 
DISL,ioos:station:DISL:MHPA:1,2011-08-03T06:30:00Z,30.6671,-87.9365,8.5,0.57,342.6,-9999.0,'1111122,1111122,1111122' 
DISL,ioos:station:DISL:MHPA:1,2011-08-03T07:00:00Z,30.6671,-87.9365,8.5,0.09,316.3,-9999.0,'1111122,1111122,1111122' 
DISL,ioos:station:DISL:MHPA:1,2011-08-03T07:30:00Z,30.6671,-87.9365,8.5,0.36,10.94,-9999.0,'1111122,1111122,1111122' 
DISL,ioos:station:DISL:MHPA:1,2011-08-03T08:00:00Z,30.6671,-87.9365,8.5,0.76,93.9,-9999.0,'1111122,1111122,1111122' 
DISL,ioos:station:DISL:MHPA:1,2011-08-03T08:30:00Z,30.6671,-87.9365,8.5,0.54,63.22,-9999.0,'1111122,1111122,1111122' 
DISL,ioos:station:DISL:MHPA:1,2011-08-03T09:00:00Z,30.6671,-87.9365,8.5,0.21,312.4,-9999.0,'1111122,1111122,1111122' 
DISL,ioos:station:DISL:MHPA:1,2011-08-03T09:30:00Z,30.6671,-87.9365,8.5,0.27,55.21,-9999.0,'1111122,1111122,1111122' 
DISL,ioos:station:DISL:MHPA:1,2011-08-03T10:00:00Z,30.6671,-87.9365,8.5,0.06,98.0,-9999.0,'1111122,1111122,1111122' 
DISL,ioos:station:DISL:MHPA:1,2011-08-03T10:30:00Z,30.6671,-87.9365,8.5,0.54,321.5,-9999.0,'1111122,1111122,1111122' 
DISL,ioos:station:DISL:MHPA:1,2011-08-03T11:00:00Z,30.6671,-87.9365,8.5,0.49,65.36,-9999.0,'1111122,1111122,1111122' 
DISL,ioos:station:DISL:MHPA:1,2011-08-03T11:30:00Z,30.6671,-87.9365,8.5,0.39,55.67,-9999.0,'1111122,1111122,1111122' 
DISL,ioos:station:DISL:MHPA:1,2011-08-03T12:00:00Z,30.6671,-87.9365,8.5,0.59,46.14,-9999.0,'1111122,1111122,1111122' 
DISL,ioos:station:DISL:MHPA:1,2011-08-03T12:30:00Z,30.6671,-87.9365,8.5,0.4,326.3,-9999.0,'1111122,1111122,1111122' 
DISL,ioos:station:DISL:MHPA:1,2011-08-03T13:00:00Z,30.6671,-87.9365,8.5,0.48,337.9,-9999.0,'1111122,1111122,1111122' 
DISL,ioos:station:DISL:MHPA:1,2011-08-03T13:30:00Z,30.6671,-87.9365,8.5,1.32,334.9,-9999.0,'1111122,1111122,1111122' 
DISL,ioos:station:DISL:MHPA:1,2011-08-03T14:00:00Z,30.6671,-87.9365,8.5,1.49,352.3,-9999.0,'1111122,1111122,1111122' 
DISL,ioos:station:DISL:MHPA:1,2011-08-03T14:30:00Z,30.6671,-87.9365,8.5,2.0,2.554,-9999.0,'1111122,1111122,1111122' 
DISL,ioos:station:DISL:MHPA:1,2011-08-03T15:00:00Z,30.6671,-87.9365,8.5,2.17,342.9,-9999.0,'1111122,1111122,1111122' 
DISL,ioos:station:DISL:MHPA:1,2011-08-03T15:30:00Z,30.6671,-87.9365,8.5,1.86,32.25,-9999.0,'1111122,1111122,1111122' 
DISL,ioos:station:DISL:MHPA:1,2011-08-03T16:00:00Z,30.6671,-87.9365,8.5,2.25,350.5,-9999.0,'1111122,1111122,1111122' 
DISL,ioos:station:DISL:MHPA:1,2011-08-03T16:30:00Z,30.6671,-87.9365,8.5,1.95,343.9,-9999.0,'1111122,1111122,1111122' 
DISL,ioos:station:DISL:MHPA:1,2011-08-03T17:00:00Z,30.6671,-87.9365,8.5,0.94,264.8,-9999.0,'1111122,1111122,1111122' 
DISL,ioos:station:DISL:MHPA:1,2011-08-03T17:30:00Z,30.6671,-87.9365,8.5,0.72,231.8,-9999.0,'1111122,1111122,1111122' 
DISL,ioos:station:DISL:MHPA:1,2011-08-03T18:00:00Z,30.6671,-87.9365,8.5,1.05,274.4,-9999.0,'1111122,1111122,1111122' 
DISL,ioos:station:DISL:MHPA:1,2011-08-03T18:30:00Z,30.6671,-87.9365,8.5,1.4,241.1,-9999.0,'1111122,1111122,1111122' 
DISL,ioos:station:DISL:MHPA:1,2011-08-03T19:00:00Z,30.6671,-87.9365,8.5,1.26,160.9,-9999.0,'1111122,1111122,1111122' 
DISL,ioos:station:DISL:MHPA:1,2011-08-03T19:30:00Z,30.6671,-87.9365,8.5,1.54,264.9,-9999.0,'1111122,1111122,1111122' 
DISL,ioos:station:DISL:MHPA:1,2011-08-03T20:00:00Z,30.6671,-87.9365,8.5,3.26,229.5,-9999.0,'1111122,1111122,1111122' 
DISL,ioos:station:DISL:MHPA:1,2011-08-03T20:30:00Z,30.6671,-87.9365,8.5,2.54,226.2,-9999.0,'1111122,1111122,1111122' 
DISL,ioos:station:DISL:MHPA:1,2011-08-03T21:00:00Z,30.6671,-87.9365,8.5,1.37,247.0,-9999.0,'1111122,1111122,1111122' 
DISL,ioos:station:DISL:MHPA:1,2011-08-03T21:30:00Z,30.6671,-87.9365,8.5,4.78,223.0,-9999.0,'1111122,1111122,1111122' 
DISL,ioos:station:DISL:MHPA:1,2011-08-03T22:00:00Z,30.6671,-87.9365,8.5,5.03,229.1,-9999.0,'1111122,1111122,1111122' 
DISL,ioos:station:DISL:MHPA:1,2011-08-03T22:30:00Z,30.6671,-87.9365,8.5,4.86,218.1,-9999.0,'1111122,1111122,1111122' 
DISL,ioos:station:DISL:MHPA:1,2011-08-03T23:00:00Z,30.6671,-87.9365,8.5,5.39,230.3,-9999.0,'1111122,1111122,1111122' 
DISL,ioos:station:DISL:MHPA:1,2011-08-03T23:30:00Z,30.6671,-87.9365,8.5,4.41,226.6,-9999.0,'1111122,1111122,1111122' 
DISL,ioos:station:DISL:MHPA:1,2011-08-04T00:00:00Z,30.6671,-87.9365,8.5,5.27,220.9,-9999.0,'1111122,1111122,1111122' 
DISL,ioos:station:DISL:MHPA:1,2011-08-04T00:30:00Z,30.6671,-87.9365,8.5,4.73,217.4,-9999.0,'1111122,1111122,1111122' 
DISL,ioos:station:DISL:MHPA:1,2011-08-04T01:00:00Z,30.6671,-87.9365,8.5,4.07,220.1,-9999.0,'1111122,1111122,1111122' 
DISL,ioos:station:DISL:MHPA:1,2011-08-04T01:30:00Z,30.6671,-87.9365,8.5,3.98,225.4,-9999.0,'1111122,1111122,1111122' 
DISL,ioos:station:DISL:MHPA:1,2011-08-04T02:00:00Z,30.6671,-87.9365,8.5,4.61,238.7,-9999.0,'1111122,1111122,1111122' 
DISL,ioos:station:DISL:MHPA:1,2011-08-04T02:30:00Z,30.6671,-87.9365,8.5,4.43,233.1,-9999.0,'1111122,1111122,1111122' 
DISL,ioos:station:DISL:MHPA:1,2011-08-04T03:00:00Z,30.6671,-87.9365,8.5,4.51,240.0,-9999.0,'1111122,1111122,1111122' 
DISL,ioos:station:DISL:MHPA:1,2011-08-04T03:30:00Z,30.6671,-87.9365,8.5,3.51,228.3,-9999.0,'1111122,1111122,1111122' 
DISL,ioos:station:DISL:MHPA:1,2011-08-04T04:00:00Z,30.6671,-87.9365,8.5,4.37,227.6,-9999.0,'1111122,1111122,1111122' 
DISL,ioos:station:DISL:MHPA:1,2011-08-04T04:30:00Z,30.6671,-87.9365,8.5,3.94,230.6,-9999.0,'1111122,1111122,1111122' 
DISL,ioos:station:DISL:MHPA:1,2011-08-04T05:00:00Z,30.6671,-87.9365,8.5,4.83,233.7,-9999.0,'1111122,1111122,1111122' 
DISL,ioos:station:DISL:MHPA:1,2011-08-04T05:30:00Z,30.6671,-87.9365,8.5,4.56,235.4,-9999.0,'1111122,1111122,1111122' 
DISL,ioos:station:DISL:MHPA:1,2011-08-04T06:00:00Z,30.6671,-87.9365,8.5,3.87,241.6,-9999.0,'1111122,1111122,1111122' 
DISL,ioos:station:DISL:MHPA:1,2011-08-04T06:30:00Z,30.6671,-87.9365,8.5,3.57,238.7,-9999.0,'1111122,1111122,1111122' 
DISL,ioos:station:DISL:MHPA:1,2011-08-04T07:00:00Z,30.6671,-87.9365,8.5,3.09,251.3,-9999.0,'1111122,1111122,1111122' 
DISL,ioos:station:DISL:MHPA:1,2011-08-04T07:30:00Z,30.6671,-87.9365,8.5,2.52,272.4,-9999.0,'1111122,1111122,1111122' 
DISL,ioos:station:DISL:MHPA:1,2011-08-04T08:00:00Z,30.6671,-87.9365,8.5,1.71,279.4,-9999.0,'1111122,1111122,1111122' 
DISL,ioos:station:DISL:MHPA:1,2011-08-04T08:30:00Z,30.6671,-87.9365,8.5,1.49,293.7,-9999.0,'1111122,1111122,1111122' 
DISL,ioos:station:DISL:MHPA:1,2011-08-04T09:00:00Z,30.6671,-87.9365,8.5,1.12,324.0,-9999.0,'1111122,1111122,1111122' 
DISL,ioos:station:DISL:MHPA:1,2011-08-04T09:30:00Z,30.6671,-87.9365,8.5,0.63,35.45,-9999.0,'1111122,1111122,1111122' 
DISL,ioos:station:DISL:MHPA:1,2011-08-04T10:00:00Z,30.6671,-87.9365,8.5,1.0,284.4,-9999.0,'1111122,1111122,1111122' 
DISL,ioos:station:DISL:MHPA:1,2011-08-04T10:30:00Z,30.6671,-87.9365,8.5,2.06,279.4,-9999.0,'1111122,1111122,1111122' 
DISL,ioos:station:DISL:MHPA:1,2011-08-04T11:00:00Z,30.6671,-87.9365,8.5,2.26,294.5,-9999.0,'1111122,1111122,1111122' 
DISL,ioos:station:DISL:MHPA:1,2011-08-04T11:30:00Z,30.6671,-87.9365,8.5,1.66,346.1,-9999.0,'1111122,1111122,1111122' 
DISL,ioos:station:DISL:MHPA:1,2011-08-04T12:00:00Z,30.6671,-87.9365,8.5,1.47,15.51,-9999.0,'1111122,1111122,1111122' 
DISL,ioos:station:DISL:MHPA:1,2011-08-04T12:30:00Z,30.6671,-87.9365,8.5,2.0,2.438,-9999.0,'1111122,1111122,1111122' 
DISL,ioos:station:DISL:MHPA:1,2011-08-04T13:00:00Z,30.6671,-87.9365,8.5,2.09,359.7,-9999.0,'1111122,1111122,1111122' 
DISL,ioos:station:DISL:MHPA:1,2011-08-04T13:30:00Z,30.6671,-87.9365,8.5,2.25,333.0,-9999.0,'1111122,1111122,1111122' 
DISL,ioos:station:DISL:MHPA:1,2011-08-04T14:00:00Z,30.6671,-87.9365,8.5,2.52,348.8,-9999.0,'1111122,1111122,1111122' 
DISL,ioos:station:DISL:MHPA:1,2011-08-04T14:30:00Z,30.6671,-87.9365,8.5,2.82,352.1,-9999.0,'1111122,1111122,1111122' 
DISL,ioos:station:DISL:MHPA:1,2011-08-04T15:00:00Z,30.6671,-87.9365,8.5,3.61,347.5,-9999.0,'1111122,1111122,1111122' 
DISL,ioos:station:DISL:MHPA:1,2011-08-04T15:30:00Z,30.6671,-87.9365,8.5,3.11,343.4,-9999.0,'1111122,1111122,1111122' 
DISL,ioos:station:DISL:MHPA:1,2011-08-04T16:00:00Z,30.6671,-87.9365,8.5,2.23,331.0,-9999.0,'1111122,1111122,1111122' 
DISL,ioos:station:DISL:MHPA:1,2011-08-04T16:30:00Z,30.6671,-87.9365,8.5,1.04,346.2,-9999.0,'1111122,1111122,1111122' 
DISL,ioos:station:DISL:MHPA:1,2011-08-04T17:00:00Z,30.6671,-87.9365,8.5,1.85,333.8,-9999.0,'1111122,1111122,1111122' 
DISL,ioos:station:DISL:MHPA:1,2011-08-04T17:30:00Z,30.6671,-87.9365,8.5,1.15,292.7,-9999.0,'1111122,1111122,1111122' 
DISL,ioos:station:DISL:MHPA:1,2011-08-04T18:00:00Z,30.6671,-87.9365,8.5,2.19,223.0,-9999.0,'1111122,1111122,1111122' 
DISL,ioos:station:DISL:MHPA:1,2011-08-04T18:30:00Z,30.6671,-87.9365,8.5,2.41,218.5,-9999.0,'1111122,1111122,1111122' 
DISL,ioos:station:DISL:MHPA:1,2011-08-04T19:00:00Z,30.6671,-87.9365,8.5,2.16,218.2,-9999.0,'1111122,1111122,1111122' 
DISL,ioos:station:DISL:MHPA:1,2011-08-04T19:30:00Z,30.6671,-87.9365,8.5,3.35,216.4,-9999.0,'1111122,1111122,1111122' 
DISL,ioos:station:DISL:MHPA:1,2011-08-04T20:00:00Z,30.6671,-87.9365,8.5,3.19,201.9,-9999.0,'1111122,1111122,1111122' 
DISL,ioos:station:DISL:MHPA:1,2011-08-04T20:30:00Z,30.6671,-87.9365,8.5,2.22,207.0,-9999.0,'1111122,1111122,1111122' 
DISL,ioos:station:DISL:MHPA:1,2011-08-04T21:00:00Z,30.6671,-87.9365,8.5,3.83,213.3,-9999.0,'1111122,1111122,1111122' 
DISL,ioos:station:DISL:MHPA:1,2011-08-04T21:30:00Z,30.6671,-87.9365,8.5,4.17,203.7,-9999.0,'1111122,1111122,1111122' 
DISL,ioos:station:DISL:MHPA:1,2011-08-04T22:00:00Z,30.6671,-87.9365,8.5,4.08,207.7,-9999.0,'1111122,1111122,1111122' 
DISL,ioos:station:DISL:MHPA:1,2011-08-04T22:30:00Z,30.6671,-87.9365,8.5,4.7,205.4,-9999.0,'1111122,1111122,1111122' 
DISL,ioos:station:DISL:MHPA:1,2011-08-04T23:00:00Z,30.6671,-87.9365,8.5,8.25,166.0,-9999.0,'1111122,1111122,1111122' 
DISL,ioos:station:DISL:MHPA:1,2011-08-04T23:30:00Z,30.6671,-87.9365,8.5,5.29,193.3,-9999.0,'1111122,1111122,1111122' 
DISL,ioos:station:DISL:MHPA:1,2011-08-05T00:00:00Z,30.6671,-87.9365,8.5,0.96,337.3,-9999.0,'1111122,1111122,1111122' 
DISL,ioos:station:DISL:MHPA:1,2011-08-05T00:30:00Z,30.6671,-87.9365,8.5,1.11,100.1,-9999.0,'1111122,1111122,1111122' 
DISL,ioos:station:DISL:MHPA:1,2011-08-05T01:00:00Z,30.6671,-87.9365,8.5,1.63,310.5,-9999.0,'1111122,1111122,1111122' 
DISL,ioos:station:DISL:MHPA:1,2011-08-05T01:30:00Z,30.6671,-87.9365,8.5,1.59,347.7,-9999.0,'1111122,1111122,1111122' 
DISL,ioos:station:DISL:MHPA:1,2011-08-05T02:00:00Z,30.6671,-87.9365,8.5,2.47,322.9,-9999.0,'1111122,1111122,1111122' 
DISL,ioos:station:DISL:MHPA:1,2011-08-05T02:30:00Z,30.6671,-87.9365,8.5,1.81,0.045,-9999.0,'1111122,1111122,1111122' 
DISL,ioos:station:DISL:MHPA:1,2011-08-05T03:00:00Z,30.6671,-87.9365,8.5,1.97,350.0,-9999.0,'1111122,1111122,1111122' 
DISL,ioos:station:DISL:MHPA:1,2011-08-05T03:30:00Z,30.6671,-87.9365,8.5,3.52,355.4,-9999.0,'1111122,1111122,1111122' 
DISL,ioos:station:DISL:MHPA:1,2011-08-05T04:00:00Z,30.6671,-87.9365,8.5,6.79,6.49,-9999.0,'1111122,1111122,1111122' 
DISL,ioos:station:DISL:MHPA:1,2011-08-05T04:30:00Z,30.6671,-87.9365,8.5,7.79,354.3,-9999.0,'1111122,1111122,1111122' 